Location: Bourg-d�Oueil
(42.8588°N, 0.4991°E)
Time: 20:30:59
(UTC+00:00)

Cosmos 1900 - Pass Details

Date: 16 June 2021
Orbit: 691 x 731 km, 66.1° (Epoch: 23 July)

Event Time Altitude Azimuth Distance (km) Brightness Sun altitude
Rises 22:30:11 0° 324° (NW) 3,086 9.0 -20.7°
Reaches altitude 10° 22:32:34 10° 321° (NW) 2,160 7.9 -20.8°
Maximum altitude 22:37:22 59° 243° (WSW) 800 4.5 -21.2°
Enters shadow 22:38:25 47° 195° (SSW) 911 4.5 -21.2°
